星链-35765(STARLINK-35765)

导读

STARLINK-35765是美国SpaceX星链星座的一员,于2025年12月11日发射升空。作为星链网络的卫星节点,它主要为全球提供低延迟、高速率的宽带互联网服务,尤其覆盖偏远、网络基础设施薄弱区域。该卫星依托低轨轨道运行,是SpaceX推进全球卫星互联网组网布局的最新组成部分,助力星链系统服务能力持续扩容。

基本信息
目录编号:
67041
目录名称:
STARLINK-35765
国际标识:
2025-294M
轨道中心:
EARTH
卫星名称:
星链-35765
卫星全名:
星链-35765(STARLINK-35765)
卫星状态:
在轨 (已飞行184 天)
发射日期:
2025-12-11 UTC
国别 :
美国 (US)
星等 :
--
轨道信息
数据来源 国际轨道数据
星历时间: 2026-06-13T04:38:33+0800
12小时前
查看轨道信息
半长轴: 6861.138km
偏心率: 0.0002242
轨道倾角: 42.999°
近地点辐角 263.735°
升交点赤经 220.663°
平近点角 96.325°
近地点: 481.462km
远地点: 484.54km
周期: 94.266分钟
每日圈数: 15.275961
详细信息
固有亮度:
5
最大亮度:
2.5
卫星平台:
Starlink V1.0
覆盖范围:
全球
运营商:
太空探索技术公司
运营商所在国:
美国
制造商(研发单位):
太空探索技术公司
制造商所在国:
美国
使用方式:
暂无
卫星简介
Starlink 计划是 SpaceX 推出的全球卫星互联网项目,通过发射低轨道卫星,为全球尤其是偏远地区提供高速、低延迟的互联网服务。自 2019 年起,Starlink 已部署数千颗卫星,旨在缩小全球数字鸿沟,推动互联网普及。该项目还为军事、航空等行业提供通信支持,带来广泛经济效益。
2D轨道图
3D轨道图
轨道高度分析图
轨道倾角分析图
轨道综合分析图
查看轨道综合分析图